ELEKTRON 1 DEB, 750

Orbit data source: Space-Track

ELEKTRON 1 DEB, 750 is space debris in LEO originally from a launch on Thu, 30 Jan 1964 UTC launched from the Tyuratam Missile And Space Complex (TTMTR). Debris objects in space refer to the collection of defunct objects orbiting the Earth. Examples of debris include non-operational satellites, rocket bodies, and fragments generated from explosions, collisions, or faulty payload assembly.

Loading next visibility...
Identifier
750, 1964-006C
Orbit
LEO
Last TLE update
13 hours ago
Origin
Manufacturer
OKB-1
Mission
Spacecraft
Bus & Motor
ADAPTER, Unknown motor
Mass
Unknown
Launch date (UTC)
1964-01-30 (61 years ago)
Launch vehicle
Unknown
Launch site
Tyuratam Missile And Space Complex (TTMTR)
Object type
Payload
Rocket body
Debris
Shape & HBR
Unknown
Radar Cross Section
Medium (>0.1 m² and <1 m²)

Expand to show TLE details & history

TLE from 13 hours ago
0 ELEKTRON 1 DEB
1 00750U 64006C   25181.80627908  .00004557  00000-0  52769-3 0  9998
2 00750  60.7653 116.6352 1428801 255.7698  88.0860 12.37754254802944
Epoch: 2025-06-30T19:21Z
TLE epoch observation values (Epoch: 2025-06-30T19:21:02.512Z)
Latitude
-0.00005°
Longitude
-92.7361°
Altitude
1,639.879 km
Speed
6.998 km/s
True Right ascension
07h 46m 32s
True Declination
0° 00' 00"
Sunlit
Object was in daylight at epoch
Visualization orbit readout
Latitude
-38.19429°
Longitude
111.93179°
Altitude
525.974 km
Speed
8.069 km/s
Apparent Right ascension
01h 41m 37s
Apparent Declination
-76° 15' 34"
Sunlit
Object is in full shadow
Visualization observer readout
Local Sidereal Time
19:57:28
Azimuth
162.588° S
Elevation
-37.641°
Doppler factor
1
Orbital elements
Apogee altitude
2,643.143 km
Perigee altitude
387.506 km
Semi-major axis
7,893.461 km
Eccentricity
0.14288
Inclination
60.7653°
RAAN
116.6352°
Arg. of periapsis
255.7698°
True anomaly
Unknown
Mean anomaly
88.086°
Eccentric anomaly
Unknown
Mean motion
3.09487 °/min
Orbital period
116.32 mins
BSTAR
0.00052769
Loading maneuver chart data...
Loading SW <> Apogee altitude chart data...

ELEKTRON 1 DEB Visibility forecast

Observer location: undefined°, undefined°

Span
Click to sort rows by Start time (UTC) header in descending order
Start Az.
Max El. time (UTC)
Max El. Az.
Max El.
End time (UTC)
End Az.
10 mins2025-07-01 18:46:22.606Z113.429° SE2025-07-01 18:50:22.606Z94.361° ESE13.395°2025-07-01 18:56:22.606Z69.123° E
25 mins2025-07-01 20:38:22.606Z186.95° SSW2025-07-01 20:48:22.606Z119.807° SE40.275°2025-07-01 21:03:22.606Z42.554° NE
26 mins2025-07-01 22:39:22.606Z242.418° WSW2025-07-01 22:50:22.606Z312.459° NW41.139°2025-07-01 23:05:22.606Z36.981° NE
25 mins2025-07-02 00:44:22.606Z286.791° WNW2025-07-02 00:56:22.606Z344.561° N29.827°2025-07-02 01:09:22.606Z46.472° ENE
23 mins2025-07-02 02:51:22.606Z316.441° NNW2025-07-02 03:03:22.606Z12.338° NNE29.7°2025-07-02 03:14:22.606Z74.179° E
23 mins2025-07-02 04:55:22.606Z323.475° NNW2025-07-02 05:08:22.606Z33.368° NE41.674°2025-07-02 05:18:22.606Z121.401° SE
20 mins2025-07-02 06:58:22.606Z314.124° NW2025-07-02 07:09:22.606Z256.082° W36.025°2025-07-02 07:18:22.606Z180.082° SSW
|